"read_dt","SO2 (ppb)","flags","PMT voltage (V)","lamp voltage (V)","lamp intensity (Hz)","internal temp (C)","react chamber temp (C)","sample flow (l/min)","pres (mmHg)","SO2 bkg (ppb)","SO2 coefficient"
2016-09-24 00:00:00,1678E-3,5C000000,-0723,0828,12304,031.0,045.6,0.445,731.3,01.19,0.508
2016-09-24 00:01:00,1660E-3,5C000000,-0723,0827,12199,031.1,045.6,0.445,731.3,01.19,0.508
2016-09-24 00:02:00,1694E-3,5C000000,-0723,0827,12123,031.1,045.6,0.446,731.3,01.19,0.508
2016-09-24 00:03:00,1648E-3,5C000000,-0723,0827,12260,031.1,045.6,0.446,731.3,01.19,0.508
2016-09-24 00:04:00,1554E-3,5C000000,-0723,0828,12248,031.1,045.6,0.445,731.3,01.19,0.508
2016-09-24 00:05:00,1740E-3,5C000000,-0723,0827,12261,031.1,045.6,0.446,731.3,01.19,0.508
2016-09-24 00:06:00,1642E-3,5C000000,-0723,0827,12253,031.2,045.6,0.446,731.4,01.19,0.508
2016-09-24 00:07:00,1628E-3,5C000000,-0723,0827,12084,031.2,045.6,0.445,731.4,01.19,0.508
2016-09-24 00:08:00,1461E-3,5C000000,-0723,0828,12158,031.2,045.6,0.446,731.4,01.19,0.508
2016-09-24 00:09:00,1562E-3,5C000000,-0723,0827,12082,031.2,045.6,0.446,731.3,01.19,0.508
2016-09-24 00:10:00,1646E-3,5C000000,-0723,0827,12334,031.3,045.6,0.445,731.4,01.19,0.508
2016-09-24 00:11:00,1558E-3,5C000000,-0723,0828,12329,031.3,045.6,0.445,731.4,01.19,0.508
2016-09-24 00:12:00,1536E-3,5C000000,-0723,0828,12285,031.3,045.6,0.446,731.4,01.19,0.508
2016-09-24 00:13:00,1787E-3,5C000000,-0723,0827,12197,031.3,045.6,0.445,731.4,01.19,0.508
2016-09-24 00:14:00,1710E-3,5C000000,-0723,0827,12109,031.3,045.6,0.445,731.4,01.19,0.508
2016-09-24 00:15:00,1725E-3,5C000000,-0723,0827,12375,031.4,045.6,0.445,731.4,01.19,0.508
2016-09-24 00:16:00,1576E-3,5C000000,-0723,0827,12168,031.4,045.6,0.446,731.4,01.19,0.508
2016-09-24 00:17:00,1509E-3,5C000000,-0723,0827,12299,031.4,045.6,0.445,731.4,01.19,0.508
2016-09-24 00:18:00,1670E-3,5C000000,-0723,0827,12203,031.4,045.6,0.445,731.4,01.19,0.508
2016-09-24 00:19:00,1668E-3,5C000000,-0723,0827,12251,031.4,045.6,0.446,731.4,01.19,0.508
2016-09-24 00:20:00,1642E-3,5C000000,-0723,0828,12288,031.4,045.6,0.445,731.4,01.19,0.508
2016-09-24 00:21:00,1660E-3,5C000000,-0723,0827,12273,031.4,045.6,0.445,731.4,01.19,0.508
2016-09-24 00:22:00,1621E-3,5C000000,-0723,0827,12220,031.5,045.6,0.446,731.4,01.19,0.508
2016-09-24 00:23:00,1578E-3,5C000000,-0723,0827,12043,031.5,045.6,0.445,731.4,01.19,0.508
2016-09-24 00:24:00,1449E-3,5C000000,-0723,0828,12124,031.5,045.6,0.445,731.4,01.19,0.508
2016-09-24 00:25:00,1496E-3,5C000000,-0723,0827,12239,031.5,045.6,0.445,731.3,01.19,0.508
2016-09-24 00:26:00,1634E-3,5C000000,-0723,0827,12069,031.4,045.6,0.445,731.4,01.19,0.508
2016-09-24 00:27:00,1812E-3,5C000000,-0723,0828,12163,031.4,045.6,0.445,731.4,01.19,0.508
2016-09-24 00:28:00,1602E-3,5C000000,-0723,0827,12186,031.3,045.6,0.445,731.4,01.19,0.508
2016-09-24 00:29:00,1567E-3,5C000000,-0723,0827,12190,031.2,045.5,0.445,731.4,01.19,0.508
2016-09-24 00:30:00,1594E-3,5C000000,-0723,0828,12185,031.2,045.6,0.445,731.3,01.19,0.508
2016-09-24 00:31:00,1629E-3,5C000000,-0723,0828,12051,031.2,045.6,0.444,731.3,01.19,0.508
2016-09-24 00:32:00,1611E-3,5C000000,-0723,0827,12102,031.1,045.6,0.445,731.4,01.19,0.508
2016-09-24 00:33:00,1638E-3,5C000000,-0723,0827,12050,031.0,045.6,0.445,731.3,01.19,0.508
2016-09-24 00:34:00,1601E-3,5C000000,-0723,0827,12224,031.0,045.6,0.445,731.3,01.19,0.508
2016-09-24 00:35:00,1519E-3,5C000000,-0723,0827,12291,030.9,045.6,0.445,731.3,01.19,0.508
2016-09-24 00:36:00,1639E-3,5C000000,-0723,0826,12162,030.9,045.6,0.445,731.3,01.19,0.508
2016-09-24 00:37:00,1681E-3,5C000000,-0723,0826,12145,030.8,045.5,0.445,731.3,01.19,0.508
2016-09-24 00:38:00,1654E-3,5C000000,-0723,0828,12076,030.8,045.5,0.446,731.4,01.19,0.508
2016-09-24 00:39:00,1517E-3,5C000000,-0723,0827,12148,030.8,045.5,0.445,731.3,01.19,0.508
2016-09-24 00:40:00,1597E-3,5C000000,-0723,0827,12251,030.8,045.5,0.446,731.3,01.19,0.508
2016-09-24 00:41:00,1597E-3,5C000000,-0723,0828,12359,030.7,045.5,0.446,731.3,01.19,0.508
2016-09-24 00:42:00,1553E-3,5C000000,-0723,0828,12275,030.7,045.5,0.445,731.3,01.19,0.508
2016-09-24 00:43:00,1607E-3,5C000000,-0723,0827,12220,030.6,045.6,0.446,731.3,01.19,0.508
2016-09-24 00:44:00,1543E-3,5C000000,-0723,0827,12309,030.6,045.6,0.446,731.3,01.19,0.508
2016-09-24 00:45:00,1550E-3,5C000000,-0723,0826,12151,030.6,045.5,0.445,731.3,01.19,0.508
2016-09-24 00:46:00,1563E-3,5C000000,-0723,0827,12297,030.5,045.5,0.446,731.3,01.19,0.508
2016-09-24 00:47:00,1602E-3,5C000000,-0723,0827,12320,030.5,045.5,0.446,731.3,01.19,0.508
2016-09-24 00:48:00,1819E-3,5C000000,-0723,0827,12265,030.4,045.5,0.446,731.3,01.19,0.508
2016-09-24 00:49:00,1525E-3,5C000000,-0723,0827,12237,030.4,045.5,0.446,731.2,01.19,0.508
2016-09-24 00:50:00,1563E-3,5C000000,-0724,0828,12313,030.4,045.5,0.446,731.3,01.19,0.508
2016-09-24 00:51:00,1664E-3,5C000000,-0724,0828,12193,030.4,045.5,0.446,731.3,01.19,0.508
2016-09-24 00:52:00,1722E-3,5C000000,-0724,0828,12258,030.3,045.5,0.446,731.3,01.19,0.508
2016-09-24 00:53:00,1723E-3,5C000000,-0723,0828,12166,030.4,045.5,0.446,731.3,01.19,0.508
2016-09-24 00:54:00,1683E-3,5C000000,-0723,0828,12095,030.3,045.5,0.447,731.3,01.19,0.508
2016-09-24 00:55:00,1721E-3,5C000000,-0723,0828,12244,030.3,045.5,0.446,731.3,01.19,0.508
2016-09-24 00:56:00,1728E-3,5C000000,-0723,0828,12246,030.3,045.5,0.446,731.3,01.19,0.508
2016-09-24 00:57:00,1766E-3,5C000000,-0724,0827,12269,030.3,045.5,0.447,731.2,01.19,0.508
2016-09-24 00:58:00,1730E-3,5C000000,-0724,0828,12203,030.3,045.5,0.446,731.3,01.19,0.508
2016-09-24 00:59:00,1801E-3,5C000000,-0723,0827,12363,030.2,045.5,0.446,731.2,01.19,0.508
2016-09-24 01:00:00,1719E-3,5C000000,-0724,0827,12304,030.2,045.5,0.446,731.3,01.19,0.508
2016-09-24 01:01:00,1566E-3,5C000000,-0723,0826,12242,030.2,045.5,0.446,731.3,01.19,0.508
2016-09-24 01:02:00,1718E-3,5C000000,-0724,0827,12207,030.2,045.5,0.446,731.3,01.19,0.508
2016-09-24 01:03:00,1624E-3,5C000000,-0724,0827,12329,030.2,045.5,0.446,731.3,01.19,0.508
2016-09-24 01:04:00,1548E-3,5C000000,-0724,0827,12319,030.2,045.5,0.447,731.3,01.19,0.508
2016-09-24 01:05:00,1503E-3,5C000000,-0723,0826,12307,030.2,045.5,0.446,731.3,01.19,0.508
2016-09-24 01:06:00,1670E-3,5C000000,-0724,0826,12196,030.2,045.5,0.447,731.3,01.19,0.508
2016-09-24 01:07:00,1593E-3,5C000000,-0724,0827,12302,030.2,045.5,0.447,731.3,01.19,0.508
2016-09-24 01:08:00,1570E-3,5C000000,-0724,0827,12272,030.2,045.5,0.446,731.3,01.19,0.508
2016-09-24 01:09:00,1761E-3,5C000000,-0724,0827,12202,030.2,045.5,0.447,731.3,01.19,0.508
2016-09-24 01:10:00,1644E-3,5C000000,-0723,0827,12084,030.1,045.5,0.446,731.4,01.19,0.508
2016-09-24 01:11:00,1625E-3,5C000000,-0724,0828,12157,030.1,045.5,0.447,731.3,01.19,0.508
2016-09-24 01:12:00,1549E-3,5C000000,-0724,0827,12289,030.1,045.5,0.447,731.3,01.19,0.508
2016-09-24 01:13:00,1528E-3,5C000000,-0724,0827,12160,030.1,045.5,0.446,731.3,01.19,0.508
2016-09-24 01:14:00,1605E-3,5C000000,-0724,0827,12079,030.1,045.5,0.447,731.3,01.19,0.508
2016-09-24 01:15:00,1612E-3,5C000000,-0724,0827,12314,030.1,045.5,0.447,731.3,01.19,0.508
2016-09-24 01:16:00,1461E-3,5C000000,-0724,0827,12296,030.1,045.5,0.446,731.3,01.19,0.508
2016-09-24 01:17:00,1654E-3,5C000000,-0723,0827,12216,030.1,045.5,0.447,731.3,01.19,0.508
2016-09-24 01:18:00,1591E-3,5C000000,-0724,0826,12147,030.1,045.5,0.446,731.3,01.19,0.508
2016-09-24 01:19:00,1545E-3,5C000000,-0724,0827,12175,030.1,045.5,0.447,731.3,01.19,0.508
2016-09-24 01:20:00,1664E-3,5C000000,-0723,0828,12178,030.1,045.5,0.447,731.3,01.19,0.508
2016-09-24 01:21:00,1558E-3,5C000000,-0724,0826,12196,030.1,045.5,0.446,731.3,01.19,0.508
2016-09-24 01:22:00,1620E-3,5C000000,-0724,0826,12245,030.1,045.5,0.447,731.3,01.19,0.508
2016-09-24 01:23:00,1544E-3,5C000000,-0724,0826,12142,030.1,045.5,0.447,731.3,01.19,0.508
2016-09-24 01:24:00,1601E-3,5C000000,-0724,0827,12238,030.1,045.5,0.446,731.2,01.19,0.508
2016-09-24 01:25:00,1637E-3,5C000000,-0724,0827,12214,030.1,045.5,0.447,731.3,01.19,0.508
2016-09-24 01:26:00,1752E-3,5C000000,-0724,0827,12151,030.1,045.5,0.446,731.3,01.19,0.508
2016-09-24 01:27:00,1576E-3,5C000000,-0724,0827,12239,030.0,045.5,0.447,731.3,01.19,0.508
2016-09-24 01:28:00,1489E-3,5C000000,-0724,0827,12169,030.1,045.5,0.447,731.3,01.19,0.508
2016-09-24 01:29:00,1613E-3,5C000000,-0724,0827,12302,030.0,045.5,0.446,731.3,01.19,0.508
2016-09-24 01:30:00,1677E-3,5C000000,-0724,0828,12167,030.1,045.5,0.447,731.2,01.19,0.508
2016-09-24 01:31:00,1592E-3,5C000000,-0724,0826,12211,030.1,045.5,0.446,731.3,01.19,0.508
2016-09-24 01:32:00,1669E-3,5C000000,-0724,0827,12234,030.0,045.5,0.447,731.3,01.19,0.508
2016-09-24 01:33:00,1555E-3,5C000000,-0724,0827,12125,030.0,045.5,0.447,731.3,01.19,0.508
2016-09-24 01:34:00,1605E-3,5C000000,-0724,0827,12267,030.0,045.5,0.447,731.3,01.19,0.508
2016-09-24 01:35:00,1714E-3,5C000000,-0724,0827,12218,030.1,045.5,0.447,731.3,01.19,0.508
2016-09-24 01:36:00,1644E-3,5C000000,-0724,0827,12287,030.1,045.5,0.446,731.3,01.19,0.508
2016-09-24 01:37:00,1622E-3,5C000000,-0724,0827,12300,030.1,045.5,0.447,731.3,01.19,0.508
2016-09-24 01:38:00,1510E-3,5C000000,-0724,0827,12178,030.1,045.5,0.447,731.3,01.19,0.508
2016-09-24 01:39:00,1447E-3,5C000000,-0724,0827,12255,030.1,045.5,0.446,731.3,01.19,0.508
2016-09-24 01:40:00,1732E-3,5C000000,-0724,0828,12398,030.0,045.5,0.447,731.3,01.19,0.508
2016-09-24 01:41:00,1613E-3,5C000000,-0724,0827,12343,030.0,045.5,0.446,731.3,01.19,0.508
2016-09-24 01:42:00,1626E-3,5C000000,-0724,0827,12208,030.0,045.5,0.447,731.3,01.19,0.508
2016-09-24 01:43:00,1639E-3,5C000000,-0724,0828,12241,030.0,045.5,0.447,731.3,01.19,0.508
2016-09-24 01:44:00,1665E-3,5C000000,-0724,0828,12195,030.0,045.5,0.446,731.3,01.19,0.508
2016-09-24 01:45:00,1529E-3,5C000000,-0724,0827,12201,030.0,045.5,0.447,731.3,01.19,0.508
2016-09-24 01:46:00,1669E-3,5C000000,-0724,0827,12167,030.0,045.5,0.446,731.3,01.19,0.508
2016-09-24 01:47:00,1516E-3,5C000000,-0724,0827,12207,030.0,045.5,0.447,731.3,01.19,0.508
2016-09-24 01:48:00,1520E-3,5C000000,-0724,0827,12242,030.0,045.5,0.447,731.2,01.19,0.508
2016-09-24 01:49:00,1574E-3,5C000000,-0724,0828,12185,030.0,045.5,0.447,731.2,01.19,0.508
2016-09-24 01:50:00,1533E-3,5C000000,-0724,0827,12301,030.0,045.5,0.447,731.2,01.19,0.508
2016-09-24 01:51:00,1726E-3,5C000000,-0724,0827,12296,030.0,045.5,0.446,731.2,01.19,0.508
2016-09-24 01:52:00,1726E-3,5C000000,-0724,0827,12186,030.0,045.5,0.447,731.2,01.19,0.508
2016-09-24 01:53:00,1594E-3,5C000000,-0724,0827,12289,030.0,045.5,0.447,731.2,01.19,0.508
2016-09-24 01:54:00,1542E-3,5C000000,-0724,0827,12264,030.0,045.5,0.447,731.2,01.19,0.508
2016-09-24 01:55:00,1586E-3,5C000000,-0724,0827,12174,030.0,045.5,0.447,731.2,01.19,0.508
2016-09-24 01:56:00,1639E-3,5C000000,-0724,0826,12057,030.0,045.5,0.446,731.2,01.19,0.508
2016-09-24 01:57:00,1641E-3,5C000000,-0724,0827,12234,030.0,045.5,0.447,731.2,01.19,0.508
2016-09-24 01:58:00,1556E-3,5C000000,-0724,0826,12222,030.0,045.5,0.447,731.2,01.19,0.508
2016-09-24 01:59:00,1745E-3,5C000000,-0724,0826,12083,030.0,045.5,0.446,731.2,01.19,0.508
2016-09-24 02:00:00,1603E-3,5C000000,-0724,0827,12297,030.0,045.5,0.447,731.2,01.19,0.508
2016-09-24 02:01:00,1508E-3,5C000000,-0724,0827,12249,030.0,045.5,0.446,731.1,01.19,0.508
2016-09-24 02:02:00,1627E-3,5C000000,-0724,0827,12269,030.0,045.5,0.447,731.2,01.19,0.508
2016-09-24 02:03:00,1604E-3,5C000000,-0724,0826,12219,030.0,045.5,0.447,731.1,01.19,0.508
2016-09-24 02:04:00,1529E-3,5C000000,-0724,0827,12226,030.0,045.5,0.446,731.1,01.19,0.508
2016-09-24 02:05:00,1690E-3,5C000000,-0724,0827,12350,030.0,045.5,0.447,731.1,01.19,0.508
2016-09-24 02:06:00,1553E-3,5C000000,-0724,0827,12419,030.0,045.5,0.446,731.1,01.19,0.508
2016-09-24 02:07:00,1458E-3,5C000000,-0724,0827,12258,030.0,045.5,0.447,731.1,01.19,0.508
2016-09-24 02:08:00,1650E-3,5C000000,-0724,0827,12317,030.0,045.5,0.447,731.1,01.19,0.508
2016-09-24 02:09:00,1678E-3,5C000000,-0724,0826,12200,030.0,045.5,0.446,731.2,01.19,0.508
2016-09-24 02:10:00,1578E-3,5C000000,-0724,0827,12223,030.0,045.5,0.447,731.1,01.19,0.508
2016-09-24 02:11:00,1715E-3,5C000000,-0724,0826,12268,030.0,045.5,0.447,731.2,01.19,0.508
2016-09-24 02:12:00,1652E-3,5C000000,-0724,0827,12364,030.0,045.5,0.447,731.2,01.19,0.508
2016-09-24 02:13:00,1630E-3,5C000000,-0724,0827,12028,030.0,045.5,0.447,731.2,01.19,0.508
2016-09-24 02:14:00,1605E-3,5C000000,-0724,0827,12165,030.0,045.5,0.446,731.1,01.19,0.508
2016-09-24 02:15:00,1464E-3,5C000000,-0724,0827,12231,030.0,045.5,0.447,731.2,01.19,0.508
2016-09-24 02:16:00,1550E-3,5C000000,-0724,0828,12311,030.0,045.5,0.447,731.2,01.19,0.508
2016-09-24 02:17:00,1408E-3,5C000000,-0724,0827,12124,029.9,045.5,0.447,731.2,01.19,0.508
2016-09-24 02:18:00,1701E-3,5C000000,-0724,0827,12188,029.9,045.5,0.447,731.2,01.19,0.508
2016-09-24 02:19:00,1562E-3,5C000000,-0724,0827,12300,030.0,045.5,0.446,731.2,01.19,0.508
2016-09-24 02:20:00,1642E-3,5C000000,-0724,0827,12210,029.9,045.5,0.447,731.2,01.19,0.508
2016-09-24 02:21:00,1627E-3,5C000000,-0724,0827,12191,029.9,045.5,0.447,731.2,01.19,0.508
2016-09-24 02:22:00,1583E-3,5C000000,-0724,0827,12176,029.9,045.5,0.446,731.2,01.19,0.508
2016-09-24 02:23:00,1465E-3,5C000000,-0724,0826,12015,029.9,045.5,0.447,731.2,01.19,0.508
2016-09-24 02:24:00,1537E-3,5C000000,-0724,0826,12274,029.9,045.5,0.447,731.2,01.19,0.508
2016-09-24 02:25:00,1674E-3,5C000000,-0724,0826,12214,029.9,045.5,0.447,731.2,01.19,0.508
2016-09-24 02:26:00,1645E-3,5C000000,-0724,0827,12315,029.9,045.5,0.447,731.3,01.19,0.508
2016-09-24 02:27:00,1547E-3,5C000000,-0724,0827,12255,029.9,045.5,0.447,731.2,01.19,0.508
2016-09-24 02:28:00,1595E-3,5C000000,-0724,0827,12296,030.0,045.5,0.447,731.2,01.19,0.508
2016-09-24 02:29:00,1491E-3,5C000000,-0724,0826,12126,029.9,045.5,0.447,731.2,01.19,0.508
2016-09-24 02:30:00,1560E-3,5C000000,-0724,0826,12045,029.9,045.5,0.447,731.2,01.19,0.508
2016-09-24 02:31:00,1647E-3,5C000000,-0724,0827,12346,029.9,045.5,0.447,731.3,01.19,0.508
2016-09-24 02:32:00,1643E-3,5C000000,-0724,0827,12112,029.9,045.5,0.447,731.2,01.19,0.508
2016-09-24 02:33:00,1583E-3,5C000000,-0724,0826,12158,029.9,045.5,0.446,731.3,01.19,0.508
2016-09-24 02:34:00,1611E-3,5C000000,-0724,0826,12122,029.9,045.5,0.447,731.2,01.19,0.508
2016-09-24 02:35:00,1673E-3,5C000000,-0724,0827,12009,029.9,045.5,0.447,731.2,01.19,0.508
2016-09-24 02:36:00,1662E-3,5C000000,-0724,0827,12181,029.9,045.5,0.447,731.3,01.19,0.508
2016-09-24 02:37:00,1461E-3,5C000000,-0724,0827,12227,029.9,045.5,0.447,731.3,01.19,0.508
2016-09-24 02:38:00,1625E-3,5C000000,-0724,0827,12261,029.9,045.5,0.447,731.3,01.19,0.508
2016-09-24 02:39:00,1632E-3,5C000000,-0724,0828,12228,029.9,045.5,0.447,731.3,01.19,0.508
2016-09-24 02:40:00,1602E-3,5C000010,-0724,0826,9957,029.9,045.5,0.447,731.3,01.19,0.508
2016-09-24 02:41:00,1698E-3,5C000000,-0724,0827,12229,029.9,045.5,0.447,731.2,01.19,0.508
2016-09-24 02:42:00,1622E-3,5C000000,-0724,0827,12139,029.9,045.5,0.447,731.3,01.19,0.508
2016-09-24 02:43:00,1572E-3,5C000000,-0724,0827,12218,029.9,045.5,0.447,731.2,01.19,0.508
2016-09-24 02:44:00,1604E-3,5C000000,-0724,0827,12251,029.9,045.5,0.447,731.2,01.19,0.508
2016-09-24 02:45:00,1615E-3,5C000000,-0724,0827,12237,029.9,045.5,0.447,731.3,01.19,0.508
2016-09-24 02:46:00,1608E-3,5C000000,-0724,0828,12194,029.9,045.5,0.447,731.2,01.19,0.508
2016-09-24 02:47:00,1679E-3,5C000000,-0724,0827,12142,029.9,045.5,0.446,731.3,01.19,0.508
2016-09-24 02:48:00,1615E-3,5C000000,-0724,0827,12265,029.9,045.5,0.447,731.3,01.19,0.508
2016-09-24 02:49:00,1558E-3,5C000000,-0724,0828,12296,029.9,045.5,0.447,731.3,01.19,0.508
2016-09-24 02:50:00,1535E-3,5C000000,-0724,0827,12191,029.9,045.5,0.447,731.3,01.19,0.508
2016-09-24 02:51:00,1564E-3,5C000000,-0724,0827,12088,029.9,045.5,0.447,731.2,01.19,0.508
2016-09-24 02:52:00,1582E-3,5C000000,-0724,0827,12342,029.9,045.5,0.447,731.2,01.19,0.508
2016-09-24 02:53:00,1553E-3,5C000000,-0724,0828,12278,029.9,045.5,0.447,731.2,01.19,0.508
2016-09-24 02:54:00,1521E-3,5C000000,-0724,0827,12118,029.9,045.5,0.447,731.3,01.19,0.508
2016-09-24 02:55:00,1593E-3,5C000000,-0724,0827,12136,029.9,045.5,0.447,731.3,01.19,0.508
2016-09-24 02:56:00,1681E-3,5C000000,-0724,0826,12398,029.9,045.5,0.447,731.3,01.19,0.508
2016-09-24 02:57:00,1606E-3,5C000000,-0724,0827,12277,029.9,045.5,0.447,731.2,01.19,0.508
2016-09-24 02:58:00,1634E-3,5C000000,-0724,0826,12199,029.9,045.5,0.447,731.2,01.19,0.508
2016-09-24 02:59:00,1623E-3,5C000000,-0724,0828,12285,029.9,045.5,0.447,731.2,01.19,0.508
2016-09-24 03:00:00,1561E-3,5C000000,-0724,0827,12151,029.9,045.5,0.447,731.2,01.19,0.508
2016-09-24 03:01:00,1546E-3,5C000000,-0724,0826,12271,029.9,045.5,0.447,731.2,01.19,0.508
2016-09-24 03:02:00,1572E-3,5C000000,-0724,0826,12305,029.9,045.5,0.447,731.2,01.19,0.508
2016-09-24 03:03:00,1650E-3,5C000000,-0724,0828,12289,029.9,045.5,0.447,731.2,01.19,0.508
2016-09-24 03:04:00,1603E-3,5C000000,-0724,0827,12328,029.8,045.5,0.447,731.2,01.19,0.508
2016-09-24 03:05:00,1703E-3,5C000000,-0724,0827,12188,029.9,045.5,0.447,731.2,01.19,0.508
2016-09-24 03:06:00,1761E-3,5C000000,-0724,0827,12339,029.9,045.5,0.447,731.2,01.19,0.508
2016-09-24 03:07:00,1603E-3,5C000000,-0724,0827,12246,029.9,045.5,0.447,731.1,01.19,0.508
2016-09-24 03:08:00,1602E-3,5C000000,-0724,0827,12312,029.9,045.5,0.447,731.2,01.19,0.508
2016-09-24 03:09:00,1662E-3,5C000000,-0724,0827,12174,029.9,045.5,0.447,731.2,01.19,0.508
2016-09-24 03:10:00,1565E-3,5C000000,-0724,0827,12059,029.9,045.5,0.447,731.2,01.19,0.508
2016-09-24 03:11:00,1697E-3,5C000000,-0724,0827,12174,029.8,045.5,0.447,731.2,01.19,0.508
2016-09-24 03:12:00,1604E-3,5C000000,-0724,0827,12267,029.8,045.5,0.447,731.1,01.19,0.508
2016-09-24 03:13:00,1634E-3,5C000000,-0724,0826,12208,029.8,045.5,0.447,731.2,01.19,0.508
2016-09-24 03:14:00,1640E-3,5C000000,-0724,0826,12223,029.8,045.5,0.447,731.1,01.19,0.508
2016-09-24 03:15:00,1612E-3,5C000000,-0724,0827,12212,029.8,045.5,0.447,731.2,01.19,0.508
2016-09-24 03:16:00,1616E-3,5C000000,-0724,0827,11960,029.8,045.5,0.446,731.2,01.19,0.508
2016-09-24 03:17:00,1498E-3,5C000000,-0724,0827,12183,029.9,045.5,0.447,731.1,01.19,0.508
2016-09-24 03:18:00,1489E-3,5C000000,-0724,0827,12158,029.8,045.5,0.447,731.2,01.19,0.508
2016-09-24 03:19:00,1621E-3,5C000000,-0724,0828,11996,029.8,045.5,0.447,731.2,01.19,0.508
2016-09-24 03:20:00,1716E-3,5C000000,-0724,0826,12340,029.8,045.5,0.447,731.2,01.19,0.508
2016-09-24 03:21:00,1546E-3,5C000000,-0724,0827,12176,029.8,045.5,0.446,731.1,01.19,0.508
2016-09-24 03:22:00,1675E-3,5C000000,-0724,0826,12285,029.8,045.5,0.447,731.1,01.19,0.508
2016-09-24 03:23:00,1643E-3,5C000000,-0724,0827,12053,029.8,045.5,0.447,731.2,01.19,0.508
2016-09-24 03:24:00,1573E-3,5C000000,-0724,0827,12276,029.8,045.5,0.447,731.1,01.19,0.508
2016-09-24 03:25:00,1579E-3,5C000000,-0724,0827,12227,029.8,045.5,0.447,731.1,01.19,0.508
2016-09-24 03:26:00,1686E-3,5C000000,-0724,0827,12302,029.8,045.5,0.447,731.1,01.19,0.508
2016-09-24 03:27:00,1628E-3,5C000000,-0724,0827,12247,029.8,045.5,0.447,731.1,01.19,0.508
2016-09-24 03:28:00,1603E-3,5C000000,-0724,0827,12175,029.8,045.5,0.447,731.2,01.19,0.508
2016-09-24 03:29:00,1579E-3,5C000000,-0724,0827,12184,029.8,045.5,0.446,731.1,01.19,0.508
2016-09-24 03:30:00,1606E-3,5C000000,-0724,0827,12098,029.8,045.5,0.447,731.2,01.19,0.508
2016-09-24 03:31:00,1652E-3,5C000000,-0724,0826,12029,029.8,045.5,0.447,731.2,01.19,0.508
2016-09-24 03:32:00,1670E-3,5C000000,-0724,0828,12124,029.8,045.5,0.447,731.2,01.19,0.508
2016-09-24 03:33:00,1645E-3,5C000000,-0724,0827,12168,029.8,045.5,0.447,731.2,01.19,0.508
2016-09-24 03:34:00,1497E-3,5C000000,-0724,0827,12191,029.8,045.5,0.447,731.2,01.19,0.508
2016-09-24 03:35:00,1500E-3,5C000000,-0724,0827,12079,029.8,045.5,0.447,731.2,01.19,0.508
2016-09-24 03:36:00,1589E-3,5C000000,-0724,0827,12093,029.8,045.5,0.447,731.2,01.19,0.508
2016-09-24 03:37:00,1623E-3,5C000000,-0724,0827,12221,029.8,045.5,0.447,731.2,01.19,0.508
2016-09-24 03:38:00,1525E-3,5C000000,-0724,0827,12207,029.8,045.5,0.447,731.3,01.19,0.508
2016-09-24 03:39:00,1694E-3,5C000000,-0724,0827,12165,029.8,045.5,0.447,731.2,01.19,0.508
2016-09-24 03:40:00,1504E-3,5C000000,-0724,0828,12206,029.8,045.5,0.447,731.2,01.19,0.508
2016-09-24 03:41:00,1589E-3,5C000000,-0724,0827,12142,029.8,045.5,0.447,731.2,01.19,0.508
2016-09-24 03:42:00,1638E-3,5C000000,-0724,0827,12227,029.7,045.5,0.447,731.2,01.19,0.508
2016-09-24 03:43:00,1486E-3,5C000000,-0724,0827,12174,029.8,045.5,0.447,731.2,01.19,0.508
2016-09-24 03:44:00,1634E-3,5C000000,-0724,0827,12131,029.7,045.5,0.447,731.2,01.19,0.508
2016-09-24 03:45:00,1587E-3,5C000000,-0724,0827,12041,029.7,045.5,0.447,731.2,01.19,0.508
2016-09-24 03:46:00,1583E-3,5C000000,-0724,0826,12187,029.7,045.5,0.447,731.2,01.19,0.508
2016-09-24 03:47:00,1601E-3,5C000000,-0724,0827,12293,029.7,045.5,0.448,731.2,01.19,0.508
2016-09-24 03:48:00,1661E-3,5C000000,-0724,0827,12290,029.7,045.5,0.447,731.3,01.19,0.508
2016-09-24 03:49:00,1577E-3,5C000000,-0724,0827,12178,029.7,045.5,0.447,731.2,01.19,0.508
2016-09-24 03:50:00,1582E-3,5C000000,-0724,0827,12117,029.7,045.5,0.447,731.3,01.19,0.508
2016-09-24 03:51:00,1518E-3,5C000000,-0724,0827,12240,029.7,045.5,0.447,731.3,01.19,0.508
2016-09-24 03:52:00,1553E-3,5C000000,-0724,0828,12092,029.7,045.5,0.448,731.2,01.19,0.508
2016-09-24 03:53:00,1519E-3,5C000000,-0724,0826,12217,029.7,045.5,0.447,731.2,01.19,0.508
2016-09-24 03:54:00,1581E-3,5C000000,-0724,0827,12242,029.7,045.5,0.447,731.2,01.19,0.508
2016-09-24 03:55:00,1565E-3,5C000000,-0724,0826,12108,029.7,045.5,0.447,731.2,01.19,0.508
2016-09-24 03:56:00,1734E-3,5C000000,-0724,0826,12131,029.7,045.5,0.447,731.2,01.19,0.508
2016-09-24 03:57:00,1683E-3,5C000000,-0724,0827,12174,029.7,045.5,0.447,731.2,01.19,0.508
2016-09-24 03:58:00,1695E-3,5C000000,-0724,0826,12205,029.7,045.5,0.447,731.2,01.19,0.508
2016-09-24 03:59:00,1618E-3,5C000000,-0724,0827,12274,029.7,045.5,0.447,731.3,01.19,0.508
2016-09-24 04:00:00,1643E-3,5C000000,-0724,0827,12181,029.7,045.5,0.447,731.2,01.19,0.508
2016-09-24 04:01:00,1589E-3,5C000000,-0724,0827,12209,029.7,045.5,0.447,731.2,01.19,0.508
2016-09-24 04:02:00,1598E-3,5C000000,-0724,0826,12176,029.7,045.5,0.447,731.2,01.19,0.508
2016-09-24 04:03:00,1512E-3,5C000000,-0724,0826,12224,029.7,045.5,0.447,731.3,01.19,0.508
2016-09-24 04:04:00,1595E-3,5C000000,-0724,0827,12132,029.7,045.5,0.447,731.3,01.19,0.508
2016-09-24 04:05:00,1591E-3,5C000000,-0724,0827,12121,029.7,045.5,0.447,731.3,01.19,0.508
2016-09-24 04:06:00,1639E-3,5C000000,-0724,0826,12191,029.7,045.5,0.447,731.3,01.19,0.508
2016-09-24 04:07:00,1683E-3,5C000000,-0724,0827,12095,029.7,045.5,0.447,731.3,01.19,0.508
2016-09-24 04:08:00,1574E-3,5C000000,-0724,0827,12288,029.7,045.5,0.447,731.4,01.19,0.508
2016-09-24 04:09:00,1614E-3,5C000000,-0724,0827,12188,029.7,045.5,0.448,731.4,01.19,0.508
2016-09-24 04:10:00,1709E-3,5C000000,-0724,0827,12153,029.7,045.5,0.447,731.3,01.19,0.508
2016-09-24 04:11:00,1563E-3,5C000000,-0724,0827,12165,029.6,045.5,0.447,731.3,01.19,0.508
2016-09-24 04:12:00,1627E-3,5C000000,-0724,0828,12308,029.7,045.5,0.448,731.3,01.19,0.508
2016-09-24 04:13:00,1558E-3,5C000000,-0724,0828,12218,029.6,045.5,0.447,731.4,01.19,0.508
2016-09-24 04:14:00,1478E-3,5C000000,-0724,0827,12200,029.7,045.5,0.447,731.4,01.19,0.508
2016-09-24 04:15:00,1645E-3,5C000000,-0724,0828,12122,029.6,045.5,0.448,731.4,01.19,0.508
2016-09-24 04:16:00,1696E-3,5C000000,-0724,0827,12144,029.6,045.5,0.447,731.3,01.19,0.508
2016-09-24 04:17:00,1630E-3,5C000000,-0724,0827,12210,029.7,045.5,0.447,731.4,01.19,0.508
2016-09-24 04:18:00,1626E-3,5C000000,-0724,0827,12228,029.7,045.5,0.448,731.4,01.19,0.508
2016-09-24 04:19:00,1513E-3,5C000000,-0724,0828,12152,029.7,045.5,0.448,731.4,01.19,0.508
2016-09-24 04:20:00,1619E-3,5C000000,-0724,0827,12168,029.6,045.5,0.447,731.4,01.19,0.508